Other Public Products
Issued by NWS Grand Forks, ND

Home | Current Version | Previous Version | Graphics & Text | Print | Product List | Glossary On
Versions: 1 2 3 4 5 6 7 8 9 10 11 12 13 14 15 16 17 18 19 20 21 22 23 24 25 26 27 28 29 30 31 32 33 34 35 36 37 38 39 40 41 42 43 44 45 46 47 48 49 50
000
FPUS83 KFGF 211910
OPUFGF
PRAIRIE TO PINES WEATHER ROUNDUP
NATIONAL WEATHER SERVICE EASTERN NORTH DAKOTA/GRAND FORKS ND
200 PM CDT SAT OCT 21 2017

 **SATELLITE DATA USED TO AUGMENT SKY COVER AT AUTOMATED STATIONS**
 *****  WEATHER ACROSS EASTERN NORTH DAKOTA  *****

CITY           SKY/WX    TMP DP  RH WIND       PRES   REMARKS
GRAND FORKS    PTSUNNY   66  43  43 W15       29.45F
GRAND FORKS AF SUNNY     64  41  42 W13G20    29.47S
GRAND CITY NWS NOT AVBL
BUXTON         NOT AVBL
DEVILS LAKE    PTSUNNY   53  41  63 W24G30    29.53R
FARGO          CLOUDY    61  44  53 W8        29.51R
WAHPETON ARPT  NOT AVBL
$$

 *****  WEATHER ACROSS CENTRAL AND WESTERN NORTH DAKOTA  *****

CITY           SKY/WX    TMP DP  RH WIND       PRES   REMARKS
JAMESTOWN      CLOUDY    53  41  63 W20G29    29.58R
BISMARCK       CLOUDY    51  40  65 W12       29.65R
MINOT          CLOUDY    51  38  60 W23G33    29.55R
MINOT AFB      CLOUDY    50  38  64 W23G33    29.52R
GARRISON         N/A     49  38  65 W22G36    29.59R
WILLISTON      CLOUDY    49  36  61 W26G38    29.63R
DICKINSON      CLOUDY    48  37  65 W30G43    29.65S
HETTINGER      CLOUDY    51  32  48 W32G45    29.71S
$$

 *****  OTHER OBSERVATIONS NORTHEAST NORTH DAKOTA  *****

CITY           SKY/WX    TMP DP  RH WIND       PRES   REMARKS
WALHALLA       FAIR     N/A N/A N/A W10       29.41R
LANGDON        FAIR      59  41  51 W22G29    29.44R
CAVALIER       FAIR      64  45  48 W10G17    29.41S
GRAFTON        FAIR      63  43  48 SW10      29.46S
CANDO          FAIR      54  41  62 W24G31    29.52R
FORT TOTTEN      N/A     53  40  61 W13       29.95S
ROLLA          MOCLDY    48  41  76 W17       29.47R
RUGBY          MOCLDY    50  45  81 W15       29.51R
 ***** THE ABOVE OBSERVATIONS ARE NON NWS ARE NOT QUALITY
        CONTROLLED AND MAY MIS-REPORT RAIN FOR SNOW...
$$

 *****  OTHER OBSERVATIONS SOUTHEAST NORTH DAKOTA *****

CITY           SKY/WX    TMP DP  RH WIND       PRES   REMARKS
COOPERSTOWN    FAIR      55  41  58 W24       29.56R
VALLEY CITY    DRIZZLE   54  52  94 W15G22    29.56F
OAKES          NOT AVBL
GWINNER        MOCLDY    57  45  62 W16G23    29.58R
SHEYENNE NWR     N/A     60  42  51 W12       29.95S
BUFFALO        NOT AVBL
WYNDMERE       NOT AVBL
 ***** THE ABOVE OBSERVATIONS ARE NON NWS ARE NOT QUALITY
       CONTROLLED AND MAY MIS-REPORT RAIN FOR SNOW...
$$

  *****  WEATHER ACROSS NORTHERN MINNESOTA  *****

CITY           SKY/WX    TMP DP  RH WIND       PRES   REMARKS
FLAG ISLAND    CLOUDY    55  52  88 SE16      29.43S
WARROAD        CLOUDY    66  61  82 S14G21    29.45S
ROSEAU         CLOUDY    63  57  82 S17G25    29.45S
HALLOCK        FAIR      66  41  39 SW14      29.42F
THF RVR FALLS  CLOUDY    62  41  46 SW13      29.48F
HALSTAD        NOT AVBL
FOSSTON        CLOUDY    55  48  76 SW7       29.51R
BAUDETTE       CLOUDY    64  57  78 S16G24    29.47F
WASKISH        CLOUDY    64  57  77 S12G20    29.50F
CROOKSTON      PTSUNNY   63  43  48 W10       29.48S
$$
  *****  WEATHER ACROSS CENTRAL AND WEST MINNESOTA  *****

CITY           SKY/WX    TMP DP  RH WIND       PRES   REMARKS
BEMIDJI        CLOUDY    63  57  82 S12       29.51S
PARK RAPIDS    CLOUDY    63  59  87 S16G25    29.52F
WADENA         CLOUDY    64  59  82 S16G22    29.52S
DETROIT LAKES  LGT RAIN  52  50  93 NW8       29.53R
MOORHEAD       CLOUDY    59  45  58 W3        29.52R
FERGUS FALLS   CLOUDY    55  46  71 NW7       29.53S
ELBOW LAKE     DRIZZLE   54  50  87 NW6       29.54R
MORRIS MN      FAIR      57  48  72 NW15      29.53R
STAPLES        LGT RAIN  63  57  82 S10       29.54F
WHEATON        CLOUDY    55  46  71 W14       29.58R
$$
  *****  WEATHER ELSEWHERE ACROSS MINNESOTA  *****

CITY           SKY/WX    TMP DP  RH WIND       PRES   REMARKS
DULUTH         CLOUDY    58  58 100 S17G25    29.66F FOG
INTRNTL FALLS  CLOUDY    64  55  72 S14G25    29.53F
ELY            CLOUDY    61  54  77 S9G18     29.63F
CLOQUET        CLOUDY    61  57  88 S10       29.66S FOG
BRAINERD       CLOUDY    61  59  93 S14G24    29.58F FOG
HIBBING        CLOUDY    58  57  97 S14G22    29.61F
ALEXANDRIA     CLOUDY    68  62  81 S14       29.52F
SAINT CLOUD    CLOUDY    63  62  97 S16       29.60F
MINNEAPOLIS    CLOUDY    66  62  87 S20G26    29.67S
$$

  *****  WEATHER ACROSS SOUTH DAKOTA  *****

CITY           SKY/WX    TMP DP  RH WIND       PRES   REMARKS
SIOUX FALLS    CLOUDY    58  46  64 NW21G29   29.65R
BROOKINGS      CLOUDY    54  44  69 NW23G32   29.62S
WATERTOWN      CLOUDY    55  48  77 W16G23    29.61F
HURON          CLOUDY    51  41  68 NW24G35   29.71R
SISSETON         N/A     55  49  80 NW8       29.56R
ABERDEEN       CLOUDY    52  40  63 W21G31    29.64R
MITCHELL       CLOUDY    55  39  54 NW28G36   29.73R
PIERRE         CLOUDY    51  39  63 W14       29.75S
MOBRIDGE       PTSUNNY   53  42  66 W10       29.67R
RAPID CITY     FAIR      57  20  23 NW24G37   29.82S
$$

  *****  SOME WEATHER IN NEARBY STATES *****

CITY           SKY/WX    TMP DP  RH WIND       PRES   REMARKS
GLASGOW MT     FAIR      53  29  39 NW29G40   29.72S
GREAT FALLS MT FAIR      48  20  32 SW25G37   29.88R
CHEYENNE WY    FAIR      45  10  24 W33G47    30.00R
SCOTTSBLUFF NE FAIR      57  16  20 NW25G35   29.93S
OMAHA NE       PTSUNNY   75  62  64 S18G29    29.66S
DES MOINES IA  CLOUDY    70  60  70 S16G25    29.78F
DAVENPORT IA   FAIR      78  58  49 S17G30    29.90F
CHICAGO IL     FAIR      76  56  49 S17       30.00F
EAU CLAIRE WI  PTSUNNY   67  57  70 S18G29    29.76S
LA CROSSE WI   CLOUDY    68  57  68 S8        29.83S
$$

  *****  SOME NATIONAL WEATHER *****

CITY           SKY/WX    TMP DP  RH WIND       PRES   REMARKS
LA GUARDIA NY  FAIR      79  44  28 W8        30.29F
RALEIGH NC     PTSUNNY   77  50  38 SE6       30.31S
ATLANTA GA     PTSUNNY   76  54  46 E9        30.25F
NEW ORLEANS LA PTSUNNY   85  75  72 SE18      30.02F HX  93
OKLAHOMA CITY  PTSUNNY   79  65  62 S25G33    29.80F
ALBUQUERQUE NM FAIR      64  29  26 W14G22    30.07R
SALT LAKE CITY FAIR      52  21  29 NW12G20   30.24S
LOS ANGELES CA FAIR      73  51  46 SE5       30.06S
BOISE ID       CLOUDY    48  29  47 SE12G21   30.17S
SEATTLE WA     LGT RAIN  48  47  96 CALM      29.76S FOG
$$

*** WEATHER ACROSS MANITOBA...SASKATCHEWAN AND ONTARIO ***
                ***ONTARIO***

CITY           SKY/WX    TMP DP  RH WIND       PRES   REMARKS
GERALDTON      PTSUNNY   66  50  55 S13G24    29.77F
THUNDER BAY    PTSUNNY   68  54  60 S17G25    29.72S
SIOUX LOOKOUT  CLOUDY    63  54  72 S9G18     29.54S
TORONTO        PTSUNNY   70  54  56 SE9       30.22S
BIG TROUT LK   PTSUNNY   46  39  76 SE18G26   29.59S
PICKLE LAKE    CLOUDY    64  52  63 S13G22    29.56F
DRYDEN         CLOUDY    63  54  72 S17G26    29.52S
KENORA         CLOUDY    63  57  82 S16G24    29.46S
$$
                *** MANITOBA***

CITY           SKY/WX    TMP DP  RH WIND       PRES   REMARKS
BRANDON        LGT RAIN  50  39  66 W22G28    29.41R
DAUPHIN        PTSUNNY   48  41  76 W26G36    29.31R
ISLAND LAKE    PTSUNNY   66  54  63 SE10      29.32F
PILOT MOUND      N/A     54  39  58 W13G22      N/A
THE PAS        CLOUDY    41  37  87 NW14      29.30R
THOMPSON       CLOUDY    52  43  71 NE5       29.29R
WINNIPEG       PTSUNNY   63  41  45 SW15      29.36S
LYNN LAKE      CLOUDY    36  34  93 N9        29.38R
CHURCHILL      CLOUDY    37  34  87 SE18G25   29.48F
GILLAM         PTSUNNY   50  41  71 SE9       29.36F
$$
                ***SASKATCHEWAN***

CITY           SKY/WX    TMP DP  RH WIND       PRES   REMARKS
ESTEVAN        DRIZZLE   46  36  66 W20G28    29.53R
KINDERSLEY     MOSUNNY   48  32  53 W18G25    29.66R
LLOYDMINSTER   PTSUNNY   48  34  57 NW15G22   29.62R
PRINCE ALBERT  LGT RAIN  43  36  75 NW16G22   29.47R
REGINA         CLOUDY    41  36  81 NW25G36   29.52R
YORKTON        CLOUDY    43  37  81 W16G23    29.39R


USA.gov is the U.S. government's official web portal to all federal, state and local government web resources and services.